IZ7XUV Weather Reports


time (UTC)temp
F
wind
direction
speed
knots
gust
knots
rain 1hr
in
rain 24hr
in
rain mn
in
humidity
%
barometer
mb
20260906052532 80 295 2.6 5.2 0.00 0.00 0.00 43 1019.1
20260906051614 79 292 3.5 7.0 0.00 0.00 0.00 43 1019.1
20260906050553 78 282 2.6 3.5 0.00 0.00 0.00 45 1019.0
20260906045532 76 231 2.6 5.2 0.00 0.00 0.00 46 1018.9
20260906044532 74 200 0.9 2.6 0.00 0.00 0.00 51 1018.8
20260906043532 72 0.0 0.0 0.00 0.00 0.00 54 1018.8
20260906042532 72 0.0 0.0 0.00 0.00 0.00 54 1018.8
20260906041532 72 0.0 0.0 0.00 0.00 0.00 55 1018.7
20260906040533 72 0.0 0.0 0.00 0.00 0.00 54 1018.7
20260906035532 72 0.0 0.0 0.00 0.00 0.00 55 1018.6
20260906034532 72 0.0 0.0 0.00 0.00 0.00 54 1018.3
20260906033532 73 0.0 0.0 0.00 0.00 0.00 54 1018.3
20260906032532 73 0.0 0.0 0.00 0.00 0.00 53 1018.3
20260906031533 73 198 0.0 1.7 0.00 0.00 0.00 55 1018.3
20260906030552 73 0.0 0.0 0.00 0.00 0.00 54 1018.4
20260906025532 73 0.0 0.0 0.00 0.00 0.00 54 1018.3
20260906024532 73 0.0 0.0 0.00 0.00 0.00 54 1018.3
20260906023533 74 0.0 0.0 0.00 0.00 0.00 54 1018.2
20260906022532 75 0.0 0.0 0.00 0.00 0.00 52 1018.2
20260906021553 74 0.0 0.0 0.00 0.00 0.00 52 1018.3
20260906020533 74 0.0 0.0 0.00 0.00 0.00 54 1018.2
20260906015532 73 0.0 0.0 0.00 0.00 0.00 55 1018.2
20260906014532 73 0.0 0.9 0.00 0.00 0.00 54 1018.3
20260906013532 73 198 0.0 0.9 0.00 0.00 0.00 55 1018.3
20260906012532 73 198 0.0 0.9 0.00 0.00 0.00 55 1018.2
20260906011532 73 198 0.9 1.7 0.00 0.00 0.00 55 1018.3
20260906010533 74 198 0.9 1.7 0.00 0.00 0.00 55 1018.2
20260906005532 74 198 0.0 0.9 0.00 0.00 0.00 55 1018.2
20260906004532 74 198 0.0 1.7 0.00 0.00 0.00 55 1018.1
20260906003532 74 0.0 0.0 0.00 0.00 0.00 54 1018.2
20260906002532 74 199 0.0 0.9 0.00 0.00 0.00 54 1018.1
20260906001532 75 199 0.9 1.7 0.00 0.00 0.00 53 1018.1
20260906000553 75 0.0 0.0 0.00 0.00 0.00 52 1018.1
20260905235532 75 0.0 0.0 0.00 0.00 0.00 51 1018.2
20260905234532 75 199 0.0 0.9 0.00 0.00 0.00 50 1018.3
20260905233532 75 0.0 0.9 0.00 0.00 0.00 51 1018.4
20260905232532 76 199 0.0 0.9 0.00 0.00 0.00 50 1018.4
20260905231533 76 0.0 0.0 0.00 0.00 0.00 49 1018.4
20260905230533 76 199 0.0 0.9 0.00 0.00 0.00 48 1018.3
20260905225533 76 199 0.0 0.9 0.00 0.00 0.00 47 1018.4
20260905224532 77 199 0.9 1.7 0.00 0.00 0.00 46 1018.5
20260905223532 77 198 0.0 1.7 0.00 0.00 0.00 46 1018.4
20260905222532 78 199 0.9 1.7 0.00 0.00 0.00 44 1018.3
20260905221553 79 0.0 0.0 0.00 0.00 0.00 43 1018.2
20260905220553 81 199 0.0 0.9 0.00 0.00 0.00 40 1018.1
20260905215552 81 0.0 0.0 0.00 0.00 0.00 39 1018.4
20260905214532 81 198 0.0 0.9 0.00 0.00 0.00 39 1018.2
20260905213532 81 199 0.0 1.7 0.00 0.00 0.00 40 1018.1
20260905212532 81 199 0.9 1.7 0.00 0.00 0.00 40 1018.1
20260905211533 81 199 0.0 0.9 0.00 0.00 0.00 40 1018.2
20260905210533 81 200 0.0 0.9 0.00 0.00 0.00 40 1018.2
20260905205532 81 200 0.9 1.7 0.00 0.00 0.00 39 1018.1
20260905204553 81 208 0.9 1.7 0.00 0.00 0.00 39 1018.0
20260905203532 82 208 0.9 1.7 0.00 0.00 0.00 38 1018.0
20260905202532 82 198 0.9 2.6 0.00 0.00 0.00 38 1017.9
20260905201552 82 214 0.9 2.6 0.00 0.00 0.00 38 1018.0
20260905200532 81 180 1.7 3.5 0.00 0.00 0.00 38 1018.0
20260905195532 81 180 1.7 3.5 0.00 0.00 0.00 39 1018.1
20260905194532 81 183 1.7 2.6 0.00 0.00 0.00 39 1018.2
20260905193532 81 195 1.7 2.6 0.00 0.00 0.00 39 1018.1
20260905192532 81 201 1.7 3.5 0.00 0.00 0.00 39 1018.0
20260905191553 82 191 1.7 3.5 0.00 0.00 0.00 39 1017.9
20260905190532 82 177 1.7 3.5 0.00 0.00 0.00 39 1017.9
20260905185533 83 182 1.7 3.5 0.00 0.00 0.00 40 1017.8
20260905184553 84 161 1.7 3.5 0.00 0.00 0.00 39 1017.7
20260905183533 84 132 1.7 3.5 0.00 0.00 0.00 38 1017.7
20260905182532 85 93 0.9 2.6 0.00 0.00 0.00 40 1017.7
20260905181532 87 91 0.9 1.7 0.00 0.00 0.00 39 1017.6
20260905180532 87 91 0.9 1.7 0.00 0.00 0.00 37 1017.5
20260905175532 88 87 0.9 1.7 0.00 0.00 0.00 40 1017.4
20260905174532 88 94 0.0 1.7 0.00 0.00 0.00 38 1017.2
20260905173532 88 94 1.7 1.7 0.00 0.00 0.00 42 1017.2
20260905172532 89 108 1.7 2.6 0.00 0.00 0.00 46 1017.0
20260905171532 88 109 1.7 3.5 0.00 0.00 0.00 52 1017.1
20260905170613 88 97 2.6 5.2 0.00 0.00 0.00 55 1017.1
20260905165532 88 102 3.5 6.1 0.00 0.00 0.00 52 1017.0
20260905164532 89 104 2.6 5.2 0.00 0.00 0.00 50 1016.9
20260905163532 91 103 3.5 5.2 0.00 0.00 0.00 42 1017.0
20260905163032 92 110 2.6 5.2 0.00 0.00 0.00 37 1017.0
20260905162032 91 78 3.5 7.0 0.00 0.00 0.00 35 1017.0
20260905161053 92 95 3.5 6.1 0.00 0.00 0.00 35 1016.9
20260905160053 91 91 3.5 7.8 0.00 0.00 0.00 38 1017.0
20260905155052 90 97 4.3 7.0 0.00 0.00 0.00 45 1017.0
20260905154032 91 103 3.5 7.0 0.00 0.00 0.00 43 1016.9
20260905153032 90 90 4.3 7.8 0.00 0.00 0.00 48 1017.0
20260905152032 89 93 4.3 7.8 0.00 0.00 0.00 51 1017.0
20260905151032 88 107 5.2 9.6 0.00 0.00 0.00 53 1017.0
20260905150032 89 115 3.5 9.6 0.00 0.00 0.00 56 1017.1
20260905145032 89 93 4.3 9.6 0.00 0.00 0.00 53 1017.2
20260905144032 88 96 4.3 11.3 0.00 0.00 0.00 50 1017.2
20260905143032 88 112 6.1 9.6 0.00 0.00 0.00 56 1017.2
20260905142032 88 108 7.8 12.2 0.00 0.00 0.00 58 1017.3
20260905141032 89 76 3.5 7.8 0.00 0.00 0.00 55 1017.5
20260905140032 88 75 4.3 9.6 0.00 0.00 0.00 54 1017.5
20260905135032 88 81 4.3 9.6 0.00 0.00 0.00 51 1017.5
20260905134032 88 96 6.1 9.6 0.00 0.00 0.00 53 1017.4
20260905133032 88 86 4.3 9.6 0.00 0.00 0.00 53 1017.7
20260905132032 88 90 4.3 11.3 0.00 0.00 0.00 55 1017.6
20260905131032 88 103 7.0 12.2 0.00 0.00 0.00 54 1017.7
20260905130032 88 55 4.3 9.6 0.00 0.00 0.00 55 1017.9
20260905125032 88 74 5.2 9.6 0.00 0.00 0.00 56 1018.0
20260905124032 89 49 2.6 7.8 0.00 0.00 0.00 54 1018.0
20260905123031 89 67 4.3 13.0 0.00 0.00 0.00 53 1018.1
20260905122032 89 109 4.3 8.7 0.00 0.00 0.00 53 1018.1
20260905121032 89 83 3.5 9.6 0.00 0.00 0.00 53 1018.2
20260905120032 90 29 3.5 7.8 0.00 0.00 0.00 52 1018.4
20260905115032 90 16 1.7 7.0 0.00 0.00 0.00 51 1018.4
20260905114032 90 79 3.5 8.7 0.00 0.00 0.00 51 1018.4
20260905113032 92 43 2.6 7.0 0.00 0.00 0.00 45 1018.3
20260905112031 91 21 1.7 7.8 0.00 0.00 0.00 42 1018.4
20260905111033 91 118 2.6 7.8 0.00 0.00 0.00 44 1018.4
20260905110032 91 58 2.6 7.0 0.00 0.00 0.00 45 1018.4
20260905105032 90 96 3.5 7.8 0.00 0.00 0.00 45 1018.4
20260905104032 90 80 3.5 8.7 0.00 0.00 0.00 44 1018.4
20260905103032 91 70 3.5 8.7 0.00 0.00 0.00 40 1018.5
20260905102032 90 98 3.5 8.7 0.00 0.00 0.00 42 1018.7
20260905101033 91 85 2.6 7.8 0.00 0.00 0.00 37 1018.7
20260905100032 91 35 2.6 7.0 0.00 0.00 0.00 37 1018.7
20260905095033 91 78 2.6 7.8 0.00 0.00 0.00 36 1018.8
20260905094052 91 35 1.7 5.2 0.00 0.00 0.00 36 1018.8
20260905093032 90 80 3.5 8.7 0.00 0.00 0.00 38 1018.9
20260905092032 91 57 1.7 7.0 0.00 0.00 0.00 38 1018.8
20260905091032 91 73 2.6 6.1 0.00 0.00 0.00 39 1018.9
20260905090032 90 31 0.9 5.2 0.00 0.00 0.00 40 1018.8
20260905085032 91 64 1.7 5.2 0.00 0.00 0.00 38 1019.0
20260905084032 90 37 1.7 5.2 0.00 0.00 0.00 43 1019.0
20260905083031 90 99 2.6 7.0 0.00 0.00 0.00 40 1019.0
20260905082031 91 90 1.7 5.2 0.00 0.00 0.00 40 1018.9
20260905081032 92 80 1.7 3.5 0.00 0.00 0.00 33 1018.9
20260905080032 93 127 0.9 2.6 0.00 0.00 0.00 26 1018.9
20260905075032 92 151 1.7 5.2 0.00 0.00 0.00 27 1018.8
20260905074032 91 168 1.7 3.5 0.00 0.00 0.00 28 1018.9
20260905073032 91 191 0.9 2.6 0.00 0.00 0.00 31 1018.9
20260905072031 89 172 0.9 3.5 0.00 0.00 0.00 32 1018.8
20260905071032 88 165 0.9 3.5 0.00 0.00 0.00 35 1018.8
20260905070032 87 173 1.7 5.2 0.00 0.00 0.00 35 1018.8
20260905065032 85 216 0.9 3.5 0.00 0.00 0.00 37 1018.8
20260905064032 84 192 2.6 5.2 0.00 0.00 0.00 40 1018.8
20260905063032 82 198 1.7 3.5 0.00 0.00 0.00 42 1018.8
20260905062032 80 211 1.7 2.6 0.00 0.00 0.00 44 1018.9
20260905061032 78 196 0.9 2.6 0.00 0.00 0.00 46 1018.7
20260905060032 77 200 1.7 5.2 0.00 0.00 0.00 47 1018.8
20260905055032 75 206 1.7 3.5 0.00 0.00 0.00 48 1018.8
20260905054032 74 196 1.7 3.5 0.00 0.00 0.00 48 1018.9